Meteo pe oră la Czyzemin

Astăzi, 17 Aprilie, Sâmbătă

Timp Temperatura Precipitaţii Vânt Presiune Umiditate
00:00 +3°C° 0 mm 2 m/s 741 mmHg 98%
01:00 +3°C° 0 mm 2 m/s 741 mmHg 98%
02:00 +3°C° 0 mm 2 m/s 741 mmHg 98%
03:00 +3°C° 0 mm 2 m/s 741 mmHg 98%
04:00 +3°C° 0 mm 2 m/s 741 mmHg 98%
05:00 +3°C° 0.3 mm 2 m/s 741 mmHg 98%
06:00 +4°C° 0.3 mm 2 m/s 741 mmHg 98%
07:00 +4°C° 0.3 mm 2 m/s 741 mmHg 98%
08:00 +4°C° 0.2 mm 2 m/s 741 mmHg 97%
09:00 +5°C° 0.2 mm 2 m/s 741 mmHg 96%
10:00 +7°C° 0.2 mm 1 m/s 741 mmHg 96%
11:00 +7°C° 0.1 mm 1 m/s 742 mmHg 93%
12:00 +8°C° 0.1 mm 1 m/s 742 mmHg 91%
13:00 +8°C° 0.1 mm 1 m/s 742 mmHg 88%
14:00 +9°C° 0.2 mm 1 m/s 742 mmHg 88%
15:00 +9°C° 0.2 mm 1 m/s 742 mmHg 87%
16:00 +8°C° 0.2 mm 2 m/s 742 mmHg 87%
17:00 +8°C° 0 mm 1 m/s 742 mmHg 89%
18:00 +7°C° 0 mm 1 m/s 742 mmHg 91%
19:00 +7°C° 0 mm 1 m/s 742 mmHg 93%
20:00 +7°C° 0 mm 1 m/s 742 mmHg 94%
21:00 +6°C° 0 mm 1 m/s 742 mmHg 94%
22:00 +6°C° 0 mm 1 m/s 742 mmHg 95%
23:00 +6°C° 0 mm 1 m/s 742 mmHg 94%

Mâine, 18 Aprilie, Duminică

Timp Temperatura Precipitaţii Vânt Presiune Umiditate
00:00 +6°C° 0 mm 1 m/s 742 mmHg 94%
01:00 +5°C° 0 mm 0 m/s 742 mmHg 94%
02:00 +5°C° 0 mm 0 m/s 742 mmHg 94%
03:00 +6°C° 0 mm 1 m/s 742 mmHg 94%
04:00 +5°C° 0 mm 1 m/s 742 mmHg 94%
05:00 +6°C° 0 mm 1 m/s 742 mmHg 92%
06:00 +7°C° 0 mm 1 m/s 742 mmHg 89%
07:00 +7°C° 0 mm 1 m/s 742 mmHg 86%
08:00 +8°C° 0 mm 2 m/s 742 mmHg 80%
09:00 +9°C° 0 mm 2 m/s 742 mmHg 74%
10:00 +10°C° 0 mm 3 m/s 742 mmHg 68%
11:00 +11°C° 0 mm 3 m/s 742 mmHg 65%
12:00 +11°C° 0 mm 3 m/s 742 mmHg 62%
13:00 +12°C° 0 mm 3 m/s 742 mmHg 58%
14:00 +12°C° 0 mm 3 m/s 742 mmHg 59%
15:00 +12°C° 0 mm 3 m/s 742 mmHg 60%
16:00 +12°C° 0 mm 3 m/s 741 mmHg 61%
17:00 +12°C° 0 mm 2 m/s 742 mmHg 67%
18:00 +10°C° 0 mm 2 m/s 742 mmHg 73%
19:00 +9°C° 0 mm 2 m/s 742 mmHg 80%
20:00 +9°C° 0 mm 2 m/s 742 mmHg 82%
21:00 +9°C° 0 mm 2 m/s 742 mmHg 84%
22:00 +9°C° 0 mm 2 m/s 742 mmHg 87%
23:00 +8°C° 0.1 mm 2 m/s 742 mmHg 89%

Poimâine, 19 Aprilie, Luni

Timp Temperatura Precipitaţii Vânt Presiune Umiditate
00:00 +8°C° 0.1 mm 2 m/s 741 mmHg 91%
01:00 +8°C° 0.1 mm 2 m/s 741 mmHg 93%
02:00 +8°C° 0.1 mm 2 m/s 741 mmHg 93%
03:00 +8°C° 0.1 mm 3 m/s 741 mmHg 93%
04:00 +8°C° 0.1 mm 3 m/s 741 mmHg 93%
05:00 +7°C° 0 mm 4 m/s 741 mmHg 91%
06:00 +7°C° 0 mm 4 m/s 741 mmHg 88%
07:00 +7°C° 0 mm 5 m/s 741 mmHg 86%
08:00 +8°C° 0 mm 5 m/s 741 mmHg 80%
09:00 +9°C° 0 mm 5 m/s 741 mmHg 74%
10:00 +10°C° 0 mm 5 m/s 741 mmHg 69%
11:00 +12°C° 0.1 mm 5 m/s 741 mmHg 64%
12:00 +12°C° 0.1 mm 5 m/s 740 mmHg 60%
13:00 +13°C° 0.1 mm 5 m/s 740 mmHg 56%
14:00 +13°C° 0.1 mm 5 m/s 740 mmHg 58%
15:00 +12°C° 0.1 mm 5 m/s 740 mmHg 60%
16:00 +12°C° 0.1 mm 5 m/s 740 mmHg 61%
17:00 +11°C° 0.1 mm 4 m/s 740 mmHg 67%
18:00 +10°C° 0.1 mm 4 m/s 740 mmHg 73%
19:00 +9°C° 0.1 mm 3 m/s 739 mmHg 79%
20:00 +8°C° 0 mm 3 m/s 740 mmHg 82%
21:00 +7°C° 0 mm 3 m/s 740 mmHg 86%
22:00 +7°C° 0 mm 3 m/s 740 mmHg 90%
23:00 +5°C° 0 mm 3 m/s 739 mmHg 90%

20 Aprilie, Marţi

Timp Temperatura Precipitaţii Vânt Presiune Umiditate
00:00 +5°C° 0 mm 3 m/s 739 mmHg 91%
01:00 +6°C° 0 mm 2 m/s 739 mmHg 92%
02:00 +6°C° 0 mm 2 m/s 739 mmHg 91%
03:00 +6°C° 0 mm 2 m/s 739 mmHg 90%
04:00 +6°C° 0 mm 2 m/s 738 mmHg 89%
05:00 +6°C° 0 mm 2 m/s 738 mmHg 87%
06:00 +6°C° 0 mm 2 m/s 738 mmHg 85%
07:00 +7°C° 0 mm 2 m/s 738 mmHg 83%
08:00 +8°C° 0 mm 2 m/s 738 mmHg 75%
09:00 +9°C° 0 mm 2 m/s 738 mmHg 67%
10:00 +10°C° 0 mm 2 m/s 738 mmHg 59%
11:00 +11°C° 0.1 mm 3 m/s 738 mmHg 57%
12:00 +11°C° 0.1 mm 3 m/s 737 mmHg 55%
13:00 +11°C° 0.1 mm 3 m/s 737 mmHg 53%
14:00 +11°C° 0.1 mm 3 m/s 737 mmHg 54%
15:00 +11°C° 0.1 mm 3 m/s 736 mmHg 55%
16:00 +11°C° 0.1 mm 3 m/s 736 mmHg 56%
17:00 +10°C° 0 mm 3 m/s 736 mmHg 63%
18:00 +9°C° 0 mm 3 m/s 736 mmHg 69%
19:00 +7°C° 0 mm 2 m/s 736 mmHg 75%
20:00 +7°C° 0 mm 2 m/s 736 mmHg 79%
21:00 +6°C° 0 mm 2 m/s 736 mmHg 83%
22:00 +5°C° 0 mm 2 m/s 735 mmHg 86%
23:00 +5°C° 0 mm 2 m/s 735 mmHg 89%

21 Aprilie, Miercuri

Timp Temperatura Precipitaţii Vânt Presiune Umiditate
00:00 +5°C° 0 mm 2 m/s 735 mmHg 92%
01:00 +3°C° 0 mm 3 m/s 735 mmHg 94%
02:00 +3°C° 0 mm 3 m/s 735 mmHg 94%
03:00 +3°C° 0 mm 3 m/s 735 mmHg 95%
04:00 +2°C° 0 mm 3 m/s 735 mmHg 95%
05:00 +3°C° 0 mm 3 m/s 735 mmHg 89%
06:00 +4°C° 0 mm 3 m/s 735 mmHg 83%
07:00 +5°C° 0 mm 4 m/s 735 mmHg 77%
08:00 +7°C° 0 mm 4 m/s 735 mmHg 70%
09:00 +8°C° 0 mm 4 m/s 735 mmHg 63%
10:00 +10°C° 0 mm 4 m/s 735 mmHg 56%
11:00 +11°C° 0.1 mm 4 m/s 735 mmHg 55%
12:00 +11°C° 0.1 mm 4 m/s 735 mmHg 53%
13:00 +12°C° 0.1 mm 4 m/s 735 mmHg 52%
14:00 +12°C° 0 mm 3 m/s 735 mmHg 52%
15:00 +12°C° 0 mm 3 m/s 735 mmHg 52%
16:00 +13°C° 0 mm 2 m/s 735 mmHg 53%
17:00 +12°C° 0 mm 2 m/s 736 mmHg 56%
18:00 +11°C° 0 mm 1 m/s 736 mmHg 58%
19:00 +10°C° 0 mm 0 m/s 736 mmHg 61%
20:00 +9°C° 0 mm 0 m/s 736 mmHg 62%
21:00 +10°C° 0 mm 1 m/s 736 mmHg 63%
22:00 +10°C° 0 mm 1 m/s 736 mmHg 64%
23:00 +8°C° 0 mm 2 m/s 736 mmHg 66%

22 Aprilie, Joi

Timp Temperatura Precipitaţii Vânt Presiune Umiditate
00:00 +8°C° 0 mm 2 m/s 736 mmHg 67%
01:00 +8°C° 0 mm 2 m/s 736 mmHg 69%
02:00 +7°C° 0 mm 2 m/s 736 mmHg 72%
03:00 +5°C° 0 mm 3 m/s 736 mmHg 76%
04:00 +5°C° 0 mm 3 m/s 736 mmHg 79%
05:00 +7°C° 0 mm 3 m/s 736 mmHg 77%
06:00 +8°C° 0 mm 3 m/s 737 mmHg 75%
07:00 +9°C° 0 mm 3 m/s 737 mmHg 72%
08:00 +11°C° 0 mm 4 m/s 737 mmHg 66%
09:00 +13°C° 0 mm 4 m/s 737 mmHg 60%
10:00 +15°C° 0 mm 4 m/s 737 mmHg 53%
11:00 +16°C° 0.1 mm 5 m/s 737 mmHg 52%
12:00 +16°C° 0.1 mm 5 m/s 737 mmHg 50%
13:00 +16°C° 0.1 mm 5 m/s 737 mmHg 49%
14:00 +16°C° 0.1 mm 5 m/s 737 mmHg 51%
15:00 +16°C° 0.1 mm 5 m/s 737 mmHg 54%
16:00 +16°C° 0.1 mm 5 m/s 737 mmHg 56%
17:00 +14°C° 0.5 mm 4 m/s 738 mmHg 65%
18:00 +12°C° 0.5 mm 3 m/s 738 mmHg 73%
19:00 +11°C° 0.5 mm 3 m/s 738 mmHg 81%
20:00 +10°C° 0.2 mm 3 m/s 738 mmHg 82%
21:00 +10°C° 0.2 mm 4 m/s 738 mmHg 84%
22:00 +10°C° 0.2 mm 4 m/s 738 mmHg 85%
23:00 +8°C° 0.1 mm 4 m/s 738 mmHg 88%
Arată mai mult

Formular de consimțământ

Meteoprog și furnizorii noștri de servicii pot stoca și accesa date personale, precum cookies, identificatori de dispozitiv sau alte tehnologii similare pe dispozitivul dumneavoastră și procesa astfel de date pentru a personaliza conținutul și reclamele, dar și pentru a oferi caracteristici de social media și pentru a analiza traficul.

  • Stocarea și/sau accesarea informațiilor pe dispozitivul dumneavoastră

    Cookies, identificatori de dispozitiv sau alte informații pot fi stocate sau accesate pe dispozitiv în scopurile indicate mai sus.

  • Reclame și conținut personalizat, evaluarea reclamelor și a conținutului, informații despre audiențe și dezvoltarea produselor

    Reclamele și conținutul pot fi personalizate pe baza unui profil. Pot fi adăugate date suplimentare pentru a personaliza mai bine reclamele și conținutul. Performanța reclamelor și conținutului poate fi măsurată. Pot fi obținute informații despre utilizatorii care au văzut reclamele și conținutul. Aceste date pot fi utilizate pentru a dezvolta sau îmbunătăți experiența utilizatorilor, sistemele și software-ul.

Dând clic pe ‘Sunt de acord’, permiteți utilizarea cookie-urilor menționate, a identificatorilor de dispozitiv, balizelor web sau altor tehnologii similare. Setările pot fi modificate din browser-ul dispozitivului dumneavoastră.

În anumite scopuri, interesele legitime pot prima asupra consimțământului. Puteți citi mai multe informații în acest sens în Politica privind Confidențialitatea Datelor și Cookie.